Location: Castillon
(43.0896°N, 0.2156°E)
Time: 18:33:31
(UTC+00:00)

FALCON 9 DEB - Pass Details

Date: 16 June 2021
Orbit: 422 x 432 km, 53.0° (Epoch: 22 July)

Event Time Altitude Azimuth Distance (km) Brightness Sun altitude
Rises 21:11:53 0° 228° (SW) 2,389 6.9 -13.1°
Reaches altitude 10° 21:14:00 10° 226° (SW) 1,524 5.8 -13.4°
Maximum altitude 21:17:24 73° 142° (SE) 453 3.0 -13.7°
Drops below altitude 10° 21:20:49 10° 57° (ENE) 1,526 5.8 -14.1°
Sets 21:22:56 0° 56° (NE) 2,393 6.9 -14.4°
